RYR97K LIRN-LIRF

Flight info

Callsign RYR97K
Flight time 0h 37m
Altitude 18000
Route SIPRO Z803 LAT
Aircraft B738/M-SDE2E3FGHIRWXY/LB1

Departure

Time 2026-05-04 13:44
Airport Naples International Airport (LIRN)

Arrival

Time 2026-05-04 14:22
Airport Rome–Fiumicino Leonardo da Vinci International Airport (LIRF)
Time Latitude Longitude Altitude Speed Heading
2026-05-04 13:21 40.87815 14.28041 295 ft 0 kts 140°
2026-05-04 13:36 40.87825 14.28029 300 ft 4 kts 141°
2026-05-04 13:36 40.87846 14.28007 300 ft 3 kts 141°
2026-05-04 13:36 40.87861 14.27988 297 ft 4 kts 111°
2026-05-04 13:37 40.87860 14.27961 298 ft 4 kts 53°
2026-05-04 13:37 40.87850 14.27943 300 ft 1 kts 51°
2026-05-04 13:38 40.87851 14.27946 300 ft 1 kts 51°
2026-05-04 13:38 40.87870 14.27977 295 ft 7 kts 51°
2026-05-04 13:38 40.87908 14.28039 294 ft 10 kts 51°
2026-05-04 13:39 40.87952 14.28113 293 ft 11 kts 56°
2026-05-04 13:39 40.87960 14.28211 291 ft 11 kts 99°
2026-05-04 13:39 40.87948 14.28315 289 ft 12 kts 99°
2026-05-04 13:39 40.87940 14.28381 290 ft 0 kts 98°
2026-05-04 13:40 40.87938 14.28400 289 ft 6 kts 96°
2026-05-04 13:40 40.87968 14.28491 285 ft 13 kts 42°
2026-05-04 13:40 40.88059 14.28624 282 ft 28 kts 51°
2026-05-04 13:40 40.88188 14.28846 276 ft 30 kts 53°
2026-05-04 13:41 40.88297 14.29050 272 ft 24 kts 50°
2026-05-04 13:41 40.88398 14.29220 267 ft 23 kts 53°
2026-05-04 13:41 40.88499 14.29390 263 ft 26 kts 52°
2026-05-04 13:42 40.88733 14.29796 251 ft 26 kts 52°
2026-05-04 13:42 40.88842 14.29985 244 ft 25 kts 52°
2026-05-04 13:42 40.88942 14.30159 238 ft 23 kts 53°
2026-05-04 13:42 40.89026 14.30262 235 ft 11 kts 351°
2026-05-04 13:43 40.89034 14.30258 235 ft 0 kts 335°
2026-05-04 13:43 40.89037 14.30255 234 ft 1 kts 335°
2026-05-04 13:43 40.89050 14.30247 238 ft 5 kts 334°
2026-05-04 13:43 40.89104 14.30202 233 ft 14 kts 312°
2026-05-04 13:44 40.89049 14.30020 239 ft 50 kts 238°
2026-05-04 13:44 40.88725 14.29350 262 ft 120 kts 237°
2026-05-04 13:44 40.88324 14.28290 674 ft 133 kts 243°
2026-05-04 13:44 40.87956 14.27134 1255 ft 140 kts 246°
2026-05-04 13:45 40.87335 14.26040 1546 ft 170 kts 211°
2026-05-04 13:45 40.86134 14.25642 1834 ft 189 kts 193°
2026-05-04 13:45 40.84797 14.25436 2262 ft 192 kts 181°
2026-05-04 13:45 40.83458 14.25647 2766 ft 194 kts 171°
2026-05-04 13:46 40.82126 14.25971 3205 ft 198 kts 170°
2026-05-04 13:46 40.80721 14.26317 3295 ft 209 kts 170°
2026-05-04 13:46 40.79267 14.26669 3342 ft 214 kts 171°
2026-05-04 13:46 40.77793 14.27021 3395 ft 216 kts 171°
2026-05-04 13:47 40.76310 14.27372 3456 ft 217 kts 170°
2026-05-04 13:47 40.74832 14.27772 3504 ft 218 kts 162°
2026-05-04 13:47 40.73687 14.29040 3511 ft 222 kts 120°
2026-05-04 13:47 40.73445 14.31017 3548 ft 223 kts 82°
2026-05-04 13:48 40.74058 14.32870 3573 ft 223 kts 51°
2026-05-04 13:48 40.75274 14.34023 3852 ft 210 kts 23°
2026-05-04 13:48 40.76698 14.34522 3920 ft 214 kts 11°
2026-05-04 13:48 40.78183 14.34816 3948 ft 218 kts
2026-05-04 13:49 40.79616 14.34246 3985 ft 218 kts 330°
2026-05-04 13:49 40.80927 14.33228 4005 ft 220 kts 329°
2026-05-04 13:49 40.82248 14.32199 4024 ft 221 kts 329°
2026-05-04 13:49 40.83581 14.31172 4025 ft 222 kts 329°
2026-05-04 13:50 40.84938 14.30139 4026 ft 232 kts 329°
2026-05-04 13:50 40.86418 14.29023 4179 ft 257 kts 329°
2026-05-04 13:50 40.88022 14.27823 4638 ft 270 kts 330°
2026-05-04 13:50 40.89673 14.26594 5386 ft 273 kts 329°
2026-05-04 13:51 40.91315 14.25378 6244 ft 276 kts 330°
2026-05-04 13:51 40.93019 14.24122 7257 ft 277 kts 330°
2026-05-04 13:51 40.94686 14.22895 8244 ft 279 kts 330°
2026-05-04 13:51 40.96397 14.21637 9194 ft 283 kts 330°
2026-05-04 13:52 40.99892 14.19067 11047 ft 291 kts 330°
2026-05-04 13:52 41.01678 14.17753 11921 ft 295 kts 329°
2026-05-04 13:52 41.03513 14.16403 12788 ft 300 kts 329°
2026-05-04 13:53 41.03987 14.16054 13011 ft 301 kts 329°
2026-05-04 13:53 41.05893 14.14650 13900 ft 306 kts 329°
2026-05-04 13:53 41.07766 14.13271 14706 ft 309 kts 329°
2026-05-04 13:54 41.11565 14.10472 16449 ft 311 kts 328°
2026-05-04 13:54 41.13469 14.09067 17246 ft 315 kts 328°
2026-05-04 13:54 41.17300 14.06236 18164 ft 319 kts 328°
2026-05-04 13:55 41.19283 14.04769 18145 ft 323 kts 328°
2026-05-04 13:55 41.22529 14.02369 18146 ft 318 kts 328°
2026-05-04 13:55 41.25173 14.00407 18180 ft 343 kts 328°
2026-05-04 13:56 41.27324 13.98803 18167 ft 365 kts 327°
2026-05-04 13:56 41.28767 13.97508 18152 ft 377 kts 319°
2026-05-04 13:56 41.32377 13.92121 18158 ft 406 kts 303°
2026-05-04 13:57 41.33983 13.88941 18155 ft 419 kts 302°
2026-05-04 13:57 41.35610 13.85683 18140 ft 424 kts 302°
2026-05-04 13:58 41.40486 13.76112 18128 ft 414 kts 303°
2026-05-04 13:58 41.43630 13.69694 18132 ft 414 kts 295°
2026-05-04 13:58 41.44737 13.66147 18147 ft 414 kts 287°
2026-05-04 13:59 41.45421 13.62417 18135 ft 415 kts 279°
2026-05-04 13:59 41.45886 13.58611 18143 ft 416 kts 278°
2026-05-04 13:59 41.46802 13.50978 18135 ft 417 kts 278°
2026-05-04 14:00 41.47269 13.47158 18124 ft 418 kts 279°
2026-05-04 14:00 41.48219 13.39516 18132 ft 418 kts 279°
2026-05-04 14:00 41.48696 13.35693 18148 ft 418 kts 279°
2026-05-04 14:01 41.49174 13.31872 18157 ft 418 kts 279°
2026-05-04 14:01 41.49651 13.28049 18149 ft 418 kts 279°
2026-05-04 14:01 41.50590 13.20485 17774 ft 405 kts 278°
2026-05-04 14:02 41.51044 13.16813 17234 ft 398 kts 278°
2026-05-04 14:02 41.51483 13.13254 17124 ft 380 kts 278°
2026-05-04 14:02 41.51902 13.09846 16949 ft 365 kts 278°
2026-05-04 14:02 41.52305 13.06553 16797 ft 352 kts 278°
2026-05-04 14:03 41.52694 13.03379 16646 ft 341 kts 278°
2026-05-04 14:03 41.53068 13.00313 16515 ft 330 kts 278°
2026-05-04 14:03 41.53431 12.97333 16381 ft 320 kts 278°
2026-05-04 14:03 41.53784 12.94436 16241 ft 311 kts 279°
2026-05-04 14:04 41.55815 12.89553 15916 ft 303 kts 313°
2026-05-04 14:04 41.57349 12.87634 15760 ft 301 kts 314°
2026-05-04 14:04 41.58895 12.85754 15575 ft 300 kts 314°
2026-05-04 14:05 41.61980 12.81974 15214 ft 303 kts 314°
2026-05-04 14:05 41.63533 12.80046 15036 ft 306 kts 314°
2026-05-04 14:05 41.65090 12.78105 14837 ft 305 kts 314°
2026-05-04 14:06 41.66636 12.76174 14653 ft 304 kts 314°
2026-05-04 14:06 41.68175 12.74249 14465 ft 302 kts 314°
2026-05-04 14:06 41.69705 12.72331 14284 ft 301 kts 314°
2026-05-04 14:06 41.71228 12.70421 14107 ft 300 kts 313°
2026-05-04 14:07 41.72746 12.68516 13921 ft 299 kts 313°
2026-05-04 14:07 41.74258 12.66615 13715 ft 298 kts 313°
2026-05-04 14:07 41.75769 12.64716 13524 ft 297 kts 313°
2026-05-04 14:07 41.77272 12.62826 13340 ft 296 kts 313°
2026-05-04 14:08 41.78775 12.60934 13153 ft 296 kts 313°
2026-05-04 14:08 41.80274 12.59046 12971 ft 295 kts 313°
2026-05-04 14:08 41.81743 12.57126 12785 ft 295 kts 311°
2026-05-04 14:08 41.83184 12.55173 12614 ft 295 kts 311°
2026-05-04 14:09 41.86073 12.51253 12252 ft 295 kts 311°
2026-05-04 14:09 41.87509 12.49312 12073 ft 291 kts 311°
2026-05-04 14:10 41.90529 12.45842 11687 ft 288 kts 336°
2026-05-04 14:10 41.92415 12.45016 11556 ft 283 kts 340°
2026-05-04 14:10 41.94292 12.44260 11370 ft 280 kts 341°
2026-05-04 14:10 41.96153 12.43510 11210 ft 280 kts 341°
2026-05-04 14:11 41.98023 12.42749 11052 ft 282 kts 341°
2026-05-04 14:11 42.01796 12.41196 10704 ft 285 kts 341°
2026-05-04 14:11 42.03686 12.40413 10497 ft 282 kts 341°
2026-05-04 14:12 42.05551 12.39638 10280 ft 280 kts 341°
2026-05-04 14:12 42.07452 12.38846 9581 ft 293 kts 341°
2026-05-04 14:12 42.11440 12.37183 8233 ft 305 kts 342°
2026-05-04 14:13 42.13461 12.36338 7900 ft 298 kts 342°
2026-05-04 14:13 42.15391 12.35530 7778 ft 283 kts 342°
2026-05-04 14:13 42.17233 12.34757 7697 ft 273 kts 341°
2026-05-04 14:13 42.19009 12.33969 7626 ft 265 kts 334°
2026-05-04 14:14 42.20363 12.32418 7385 ft 253 kts 296°
2026-05-04 14:14 42.20537 12.27853 6294 ft 252 kts 246°
2026-05-04 14:14 42.19673 12.25827 5767 ft 250 kts 227°
2026-05-04 14:15 42.17271 12.22383 4748 ft 256 kts 223°
2026-05-04 14:15 42.14558 12.19476 4013 ft 234 kts 194°
2026-05-04 14:16 42.11499 12.19094 3972 ft 223 kts 179°
2026-05-04 14:16 42.09959 12.19103 3969 ft 220 kts 179°
2026-05-04 14:17 42.06913 12.19093 3971 ft 218 kts 179°
2026-05-04 14:17 42.05395 12.19074 3966 ft 217 kts 179°
2026-05-04 14:17 42.02358 12.19036 3547 ft 223 kts 179°
2026-05-04 14:18 42.00861 12.19378 3374 ft 212 kts 163°
2026-05-04 14:18 41.98081 12.20517 2687 ft 205 kts 163°
2026-05-04 14:19 41.95477 12.21691 2176 ft 190 kts 162°
2026-05-04 14:19 41.94236 12.22214 1881 ft 187 kts 165°
2026-05-04 14:19 41.92989 12.22662 1611 ft 182 kts 167°
2026-05-04 14:19 41.91778 12.23102 1249 ft 180 kts 164°
2026-05-04 14:20 41.90532 12.23633 1181 ft 192 kts 162°
2026-05-04 14:20 41.89257 12.24222 1104 ft 191 kts 162°
2026-05-04 14:20 41.88004 12.24727 836 ft 189 kts 167°
2026-05-04 14:21 41.85570 12.25743 324 ft 176 kts 163°
2026-05-04 14:21 41.84431 12.26218 70 ft 166 kts 163°
2026-05-04 14:21 41.83390 12.26667 12 ft 146 kts 163°
2026-05-04 14:21 41.82613 12.26986 12 ft 92 kts 162°
2026-05-04 14:22 41.82102 12.27138 10 ft 67 kts 182°
2026-05-04 14:22 41.81751 12.27056 10 ft 32 kts 184°
2026-05-04 14:22 41.81550 12.27118 13 ft 29 kts 162°
2026-05-04 14:22 41.81361 12.27188 11 ft 27 kts 166°
2026-05-04 14:23 41.81022 12.27328 11 ft 24 kts 162°
2026-05-04 14:23 41.80865 12.27343 11 ft 23 kts 188°
2026-05-04 14:23 41.80713 12.27304 12 ft 22 kts 204°
2026-05-04 14:24 41.80628 12.27143 13 ft 22 kts 249°
2026-05-04 14:24 41.80578 12.26956 12 ft 21 kts 252°
2026-05-04 14:24 41.80529 12.26774 14 ft 21 kts 248°
2026-05-04 14:24 41.80478 12.26594 14 ft 20 kts 250°
2026-05-04 14:25 41.80430 12.26419 17 ft 20 kts 244°
2026-05-04 14:25 41.80361 12.26367 13 ft 0 kts 167°
2026-05-04 14:26 41.80359 12.26368 14 ft 2 kts 167°
2026-05-04 14:27 41.80339 12.26375 13 ft 4 kts 162°
2026-05-04 14:27 41.80243 12.26414 13 ft 20 kts 179°
2026-05-04 14:27 41.80121 12.26353 14 ft 18 kts 205°
2026-05-04 14:27 41.80007 12.26282 13 ft 18 kts 205°
2026-05-04 14:28 41.79895 12.26207 13 ft 19 kts 207°
2026-05-04 14:28 41.79779 12.26135 15 ft 18 kts 207°
2026-05-04 14:28 41.79670 12.26056 14 ft 18 kts 205°
2026-05-04 14:28 41.79559 12.25990 13 ft 16 kts 203°
2026-05-04 14:29 41.79543 12.25912 14 ft 3 kts 295°
2026-05-04 14:29 41.79550 12.25894 13 ft 0 kts 295°